Location: Sungai Jaoh
(2.9167°N, 113.9167°E)
Time: 18:20:35
(UTC+00:00)

Daily predictions for brighter satellites

Satellite Brightness Start Highest point End
(mag) Time Altitude Azimuth Time Altitude Azimuth Time Altitude Azimuth
ARIANE 5 R/B 3.1 12:00:03 10° W 12:03:06 33° WSW 12:03:06 33° WSW
ATLAS CENTAUR R/B 2.5 12:00:28 10° SW 12:04:22 38° WNW 12:04:24 38° WNW
OAO 3 Rocket 3.6 12:03:23 10° WSW 12:07:38 60° W 12:07:38 60° W
Palapa 6 Rocket 4.0 12:05:35 10° WNW 12:12:11 75° NNE 12:12:35 73° NE
ARIANE 5 R/B 3.5 12:32:26 10° WSW 13:06:48 - E 12:35:06 51° SSW
Centaur AC-72 3.6 12:27:29 10° WNW 12:37:27 48° NNW 12:37:27 48° NNW
USA 281 3.9 12:36:32 10° S 12:42:51 51° WSW 12:49:09 10° NW
Cosmos 2082 Rocket 4.4 12:40:11 10° S 12:41:07 15° S 12:41:07 15° S
Cosmos 1833 Rocket 4.3 12:47:10 10° SSW 12:49:59 30° SW 12:49:59 30° SW
SL-16 R/B 4.1 19:29:32 23° E 19:29:32 23° E 19:33:26 10° SE
ARIANE 5 DEB (SYLDA) 4.2 19:33:37 33° ESE 19:33:37 33° ESE 19:36:39 10° E
BLOCK DM-SL R/B 4.2 19:40:12 49° ESE 19:40:12 49° ESE 19:52:25 10° E
Skynet4D Del rocket 4.3 19:57:40 85° WNW 19:57:57 89° SSW 20:05:47 10° ESE
BLOCK DM-SL R/B 4.4 19:55:46 55° W 19:58:15 81° S 20:03:45 10° E
SWIFT 4.5 20:03:26 24° SE 20:03:26 24° SE 20:05:21 10° SE
ADEOS Rocket 4.5 19:57:20 10° SE 20:02:22 31° ENE 20:07:21 12° NNE
CZ-3C R/B 3.0 20:08:22 46° SSW 20:09:47 61° SSE 20:35:04 10° ENE
ATLAS 2A CENTAUR R/B 4.0 20:14:56 19° E 20:14:56 19° E 20:16:36 10° E
Meteor 2-3 Rocket 4.3 20:08:02 10° S 20:13:33 55° E 20:19:05 10° NNE
Cosmos 2237 Rocket 4.3 20:23:40 14° SSW 20:23:40 14° SSW 20:24:40 10° SSW
GPS 2-14 Rocket1 3.8 20:36:20 34° SSW 20:36:20 34° SSW 20:39:59 10° SE
Ariane 44LP R/B 4.0 20:39:12 44° SW 20:39:52 51° S 20:45:42 10° ESE
METEOR-M 4.2 20:37:19 10° NNE 20:42:39 76° ESE 20:47:59 10° S
USA 215 3.2 20:37:28 10° SSE 20:44:00 73° SW 20:47:06 34° NW
Cosmos 1844 Rocket 2.7 20:39:22 10° SSW 20:44:49 55° WNW 20:50:19 10° N
Cosmos 1898 Rocket 3.6 20:41:20 10° SSW 20:46:26 52° WNW 20:51:34 10° N
Hubble Space Telescope 2.7 20:48:09 18° SW 20:48:25 18° SSW 20:51:17 10° SSE
CZ-4B R/B 4.0 20:46:41 10° NNE 20:50:25 70° ESE 20:54:21 10° S
ARIANE 5 DEB (SYLDA 5A) 3.8 20:42:14 21° W 20:50:55 66° S 20:54:29 10° ESE
Cosmos 1606 2.8 20:51:03 25° N 20:53:06 72° E 20:56:51 10° S
Aureole 2 Rocket 4.0 20:51:20 10° S 20:52:10 18° S 20:52:10 18° S
GPS 2-12 Rocket1 4.0 20:55:46 28° WSW 20:57:08 35° SSW 21:01:12 10° SE
SL-8 R/B 3.7 20:57:11 31° NNW 20:59:29 77° NE 21:04:18 10° SE
Cosmos 1484 Rocket 3.0 21:00:21 42° WNW 21:00:32 43° W 21:04:13 10° SSW
Cosmos 1937 Rocket 3.5 20:55:58 10° SSW 21:00:57 53° WNW 21:05:56 10° N
Maqsat-B 3.4 21:02:17 32° NW 21:03:56 54° N 21:12:59 10° E
Cosmos 1844 3.9 20:58:50 10° SW 21:04:05 44° WNW 21:09:21 10° N
Ariane H10+ 2.5 21:03:19 18° SW 21:04:39 30° SSE 21:08:32 10° E
GPS 2-17 Rocket1 3.7 21:03:58 31° NW 21:04:48 33° NNW 21:08:50 10° NE
ADEOS 3.7 21:00:28 10° N 21:05:27 48° WNW 21:10:28 10° SSW
Landsat 5 3.1 21:02:14 10° S 21:06:03 69° WSW 21:08:37 20° NNW
ALOS 2.8 21:05:14 16° NNW 21:08:23 36° WNW 21:12:38 10° SW
Cosmos 405 Rocket 3.8 21:05:32 10° SSE 21:09:02 43° E 21:12:32 10° NNE
SL-16 R/B 3.3 21:11:29 22° W 21:12:49 24° WSW 21:17:16 10° SSW
ATLAS 5 CENTAUR R/B 1.2 21:09:11 10° SSW 21:13:13 62° WNW 21:17:05 10° NNE
Cosmos 1743 Rocket 3.7 21:12:18 10° S 21:16:42 76° E 21:21:07 10° N
Cosmos 1408 Rocket 3.9 21:13:02 10° SSW 21:17:14 42° W 21:21:27 10° NNW
CENTAUR R/B 3.9 21:12:03 10° N 21:20:43 57° ENE 21:29:01 10° SE
USA 276 2.6 21:20:17 26° WNW 21:21:37 42° SW 21:24:37 10° SSE
ARIANE 42L R/B 3.1 21:15:29 10° W 21:23:05 59° S 21:26:04 10° E
CSL-04 DEB 4.3 21:19:11 10° SSE 21:23:10 89° ENE 21:27:04 10° NNW
Cosmos 773 Rocket 4.5 21:19:39 15° NW 21:23:38 40° WSW 21:28:27 10° S
COSMOS 2455 3.4 21:22:17 10° SW 21:27:39 34° WNW 21:33:01 10° N
Cosmos 2181 Rocket 4.2 21:21:43 10° N 21:27:48 76° E 21:33:55 10° S
Cosmos 2074 Rocket 4.0 21:25:28 10° SSW 21:31:35 61° W 21:37:40 10° N
Lacrosse 4 Rocket 3.6 21:27:56 10° NNE 21:31:42 27° ENE 21:35:30 10° SE
CZ-4B R/B 3.0 21:28:10 10° N 21:32:20 59° WNW 21:36:20 10° SSW
USA 234 3.7 21:26:50 10° NNE 21:32:46 38° NW 21:38:44 10° WSW
Ariane H10 4.3 21:19:44 10° W 21:33:13 48° SSW 21:38:45 10° ESE
Cosmos 1805 Rocket 4.4 21:31:16 10° S 21:35:33 54° E 21:39:52 10° NNE
Meteor 1-31 Rocket 4.0 21:34:44 10° NNW 21:37:29 19° WNW 21:40:15 10° SW
CRYOSAT 2 4.3 21:36:42 10° S 21:41:33 74° W 21:46:22 10° N
Meteor 1-4 Rocket 2.4 21:40:25 10° N 21:43:51 77° W 21:47:22 10° S
Delta 168 3.9 21:38:31 10° SW 21:44:38 59° SSE 21:48:43 10° ENE
Cosmos 1461 3.2 21:42:04 10° NNW 21:46:25 73° ENE 21:50:33 10° SSE
CZ-4B R/B 1.2 21:44:00 10° S 21:47:14 88° W 21:50:22 10° NNW
ADEOS Rocket 4.2 21:43:42 10° SW 21:47:41 20° W 21:51:54 10° NW
Meteor PRIRODA 4.3 21:45:39 10° NNW 21:49:02 34° WNW 21:52:25 10° SW
Cosmos 2184 Rocket 4.4 21:45:10 10° SSW 21:50:56 40° W 21:56:46 10° NNW
FALCON 9 R/B 2.6 21:33:52 10° WSW 21:52:10 83° SSE 21:56:02 10° ENE
Cosmos 1782 2.8 21:50:19 10° N 21:54:19 77° W 21:58:20 10° S
Cosmos 923 Rocket 4.3 21:50:05 10° N 21:55:24 75° ENE 22:00:43 10° SSE
Ariane H10-3 3.9 21:38:25 10° W 21:56:46 66° N 22:00:30 10° E
IUS R/B (1) 4.3 22:02:56 10° WSW 22:24:12 73° SSE 22:28:05 10° ENE
ARIANE 5 R/B 4.4 22:22:30 10° W 22:53:42 50° SSW 22:59:01 10° ESE
